This is the latest recevied weather packets stored in our database for station/object WP3OF-2. If no packets are shown the sender has not sent any weather packets the latest 10 day(s).
| Time | Temp. | Humidity | Pressure | Rain* | Wind** | Luminosity | Snow |
|---|---|---|---|---|---|---|---|
| 1788270429 | 23.89° C | 78% | 1027.4 hPa | 0 mm | - | 784 W/m² | - |
| 1788270124 | 23.89° C | 78% | 1027.4 hPa | 0 mm | - | 773 W/m² | - |
| 1788269825 | 23.89° C | 78% | 1027.4 hPa | 0 mm | - | 744 W/m² | - |
| 1788269522 | 23.89° C | 78% | 1027.4 hPa | 0 mm | - | 704 W/m² | - |
| 1788269220 | 23.89° C | 76% | 1027.1 hPa | 0 mm | - | 697 W/m² | - |
| 1788268745 | 23.89° C | 75% | 1027.4 hPa | 0 mm | - | 592 W/m² | - |
| 1788268444 | 23.89° C | 75% | 1027.4 hPa | 0 mm | - | 592 W/m² | - |
| 1788268160 | 23.33° C | 74% | 1027.1 hPa | 0 mm | - | 527 W/m² | - |
| 1788267834 | 23.89° C | 75% | 1027.1 hPa | 0 mm | - | 544 W/m² | - |
| 1788267531 | 23.89° C | 75% | 1027.1 hPa | 0 mm | - | 544 W/m² | - |
| 1788266915 | 23.33° C | 78% | 1027.1 hPa | 0 mm | - | 216 W/m² | - |
| 1788266610 | 23.33° C | 78% | 1027.1 hPa | 0 mm | - | 216 W/m² | - |
| 1788266309 | 23.33° C | 75% | 1027.1 hPa | 0 mm | - | 221 W/m² | - |
| 1788266005 | 23.33° C | 76% | 1027.1 hPa | 0 mm | - | 212 W/m² | - |
| 1788265703 | 22.78° C | 81% | 1027.1 hPa | 0 mm | - | 368 W/m² | - |
| 1788265398 | 22.78° C | 85% | 1027.1 hPa | 0 mm | - | 149 W/m² | - |
| 1788265097 | 22.22° C | 84% | 1026.7 hPa | 0 mm | - | 145 W/m² | - |
| 1788264798 | 22.22° C | 85% | 1026.7 hPa | 0 mm | - | 150 W/m² | - |
| 1788264493 | 22.22° C | 83% | 1027.1 hPa | 0 mm | - | 248 W/m² | - |
| 1788264187 | 22.22° C | 83% | 1027.1 hPa | 0 mm | - | 136 W/m² | - |
| 1788263882 | 22.22° C | 83% | 1027.1 hPa | 0 mm | - | 136 W/m² | - |
| 1788263578 | 22.22° C | 83% | 1027.1 hPa | 0 mm | - | 136 W/m² | - |
| 1788263164 | 23.33° C | 73% | 1026.7 hPa | 0 mm | - | 110 W/m² | - |
| 1788262863 | 23.33° C | 73% | 1026.7 hPa | 0 mm | - | 110 W/m² | - |
| 1788262561 | 22.78° C | 71% | 1026.3 hPa | 0 mm | - | 101 W/m² | - |
* Rain latest hour (hover to see other rain measurements)
** Current wind speed in m/s (hover to see current wind gust speed)